Time,TemperatureF,DewpointF,PressureIn,WindDirection,WindDirectionDegrees,WindSpeedMPH,WindSpeedGustMPH,Humidity,HourlyPrecipIn,Conditions,Clouds,dailyrainin,SolarRadiationWatts/m^2,SoftwareType,DateUTC
2013-03-18 00:02:00,39.0,12.0,-100.00,North,349,8.0,17.0,32,0.00,,,0.00,0.000000,,2013-03-18 06:02:00,
2013-03-18 00:12:00,39.0,12.0,-100.00,North,349,8.0,17.0,32,0.00,,,0.00,0.000000,,2013-03-18 06:12:00,
2013-03-18 00:22:00,39.0,12.0,-100.00,North,349,8.0,17.0,32,0.00,,,0.00,0.000000,,2013-03-18 06:22:00,
2013-03-18 00:30:00,38.0,12.0,-100.00,NNW,345,8.0,17.0,34,0.00,,,0.00,0.000000,,2013-03-18 06:30:00,
2013-03-18 00:52:00,38.0,12.0,-100.00,NNW,345,8.0,17.0,34,0.00,,,0.00,0.000000,,2013-03-18 06:52:00,
2013-03-18 01:02:00,38.0,12.0,-100.00,NNW,345,8.0,17.0,34,0.00,,,0.00,0.000000,,2013-03-18 07:02:00,
2013-03-18 01:12:00,38.0,12.0,-100.00,NNW,345,8.0,17.0,34,0.00,,,0.00,0.000000,,2013-03-18 07:12:00,
2013-03-18 01:22:00,38.0,12.0,-100.00,NNW,345,8.0,17.0,34,0.00,,,0.00,0.000000,,2013-03-18 07:22:00,
2013-03-18 01:30:00,37.0,11.0,-100.00,NNW,345,6.0,12.0,34,0.00,,,0.00,0.000000,,2013-03-18 07:30:00,
2013-03-18 01:52:00,37.0,11.0,-100.00,NNW,345,6.0,12.0,34,0.00,,,0.00,0.000000,,2013-03-18 07:52:00,
2013-03-18 02:02:00,37.0,11.0,-100.00,NNW,345,6.0,12.0,34,0.00,,,0.00,0.000000,,2013-03-18 08:02:00,
2013-03-18 02:12:00,37.0,11.0,-100.00,NNW,345,6.0,12.0,34,0.00,,,0.00,0.000000,,2013-03-18 08:12:00,
2013-03-18 02:22:00,37.0,11.0,-100.00,NNW,345,6.0,12.0,34,0.00,,,0.00,0.000000,,2013-03-18 08:22:00,
2013-03-18 02:30:00,35.0,11.0,-100.00,NNW,341,4.0,11.0,36,0.00,,,0.00,0.000000,,2013-03-18 08:30:00,
2013-03-18 02:52:00,35.0,11.0,-100.00,NNW,341,4.0,11.0,36,0.00,,,0.00,0.000000,,2013-03-18 08:52:00,
2013-03-18 03:02:00,35.0,11.0,-100.00,NNW,341,4.0,11.0,36,0.00,,,0.00,0.000000,,2013-03-18 09:02:00,
2013-03-18 03:12:00,35.0,11.0,-100.00,NNW,341,4.0,11.0,36,0.00,,,0.00,0.000000,,2013-03-18 09:12:00,
2013-03-18 03:22:00,35.0,11.0,-100.00,NNW,341,4.0,11.0,36,0.00,,,0.00,0.000000,,2013-03-18 09:22:00,
2013-03-18 03:30:00,35.0,11.0,-100.00,NNW,334,4.0,11.0,36,0.00,,,0.00,0.000000,,2013-03-18 09:30:00,
2013-03-18 03:53:00,35.0,11.0,-100.00,NNW,334,4.0,11.0,36,0.00,,,0.00,0.000000,,2013-03-18 09:53:00,
2013-03-18 04:03:00,35.0,11.0,-100.00,NNW,334,4.0,11.0,36,0.00,,,0.00,0.000000,,2013-03-18 10:03:00,
2013-03-18 04:12:00,35.0,11.0,-100.00,NNW,334,4.0,11.0,36,0.00,,,0.00,0.000000,,2013-03-18 10:12:00,
2013-03-18 04:23:00,35.0,11.0,-100.00,NNW,334,4.0,11.0,36,0.00,,,0.00,0.000000,,2013-03-18 10:23:00,
2013-03-18 04:30:00,34.0,11.0,-100.00,North,350,7.0,11.0,37,0.00,,,0.00,0.000000,,2013-03-18 10:30:00,
2013-03-18 04:53:00,34.0,11.0,-100.00,North,350,7.0,11.0,37,0.00,,,0.00,0.000000,,2013-03-18 10:53:00,
2013-03-18 05:03:00,34.0,11.0,-100.00,North,350,7.0,11.0,37,0.00,,,0.00,0.000000,,2013-03-18 11:03:00,
2013-03-18 05:12:00,34.0,11.0,-100.00,North,350,7.0,11.0,37,0.00,,,0.00,0.000000,,2013-03-18 11:12:00,
2013-03-18 05:22:00,34.0,11.0,-100.00,North,350,7.0,11.0,37,0.00,,,0.00,0.000000,,2013-03-18 11:22:00,
2013-03-18 05:30:00,33.0,10.0,-100.00,NNW,347,6.0,12.0,38,0.00,,,0.00,0.000000,,2013-03-18 11:30:00,
2013-03-18 05:52:00,33.0,10.0,-100.00,NNW,347,6.0,12.0,38,0.00,,,0.00,0.000000,,2013-03-18 11:52:00,
2013-03-18 06:02:00,33.0,10.0,-100.00,NNW,347,6.0,12.0,38,0.00,,,0.00,0.000000,,2013-03-18 12:02:00,
2013-03-18 06:12:00,33.0,10.0,-100.00,NNW,347,6.0,12.0,38,0.00,,,0.00,0.000000,,2013-03-18 12:12:00,
2013-03-18 06:22:00,33.0,10.0,-100.00,NNW,347,6.0,12.0,38,0.00,,,0.00,0.000000,,2013-03-18 12:22:00,
2013-03-18 06:30:00,33.0,10.0,-100.00,NNW,348,7.0,12.0,37,0.00,,,0.00,0.000000,,2013-03-18 12:30:00,
2013-03-18 06:52:00,33.0,10.0,-100.00,NNW,348,7.0,12.0,37,0.00,,,0.00,0.000000,,2013-03-18 12:52:00,
2013-03-18 07:02:00,33.0,10.0,-100.00,NNW,348,7.0,12.0,37,0.00,,,0.00,0.000000,,2013-03-18 13:02:00,
2013-03-18 07:12:00,33.0,10.0,-100.00,NNW,348,7.0,12.0,37,0.00,,,0.00,0.000000,,2013-03-18 13:12:00,
2013-03-18 07:22:00,33.0,10.0,-100.00,NNW,348,7.0,12.0,37,0.00,,,0.00,0.000000,,2013-03-18 13:22:00,
2013-03-18 07:30:00,33.0,10.0,-100.00,NNW,348,6.0,11.0,37,0.00,,,0.00,2.000000,,2013-03-18 13:30:00,
2013-03-18 07:52:00,33.0,10.0,-100.00,NNW,348,6.0,11.0,37,0.00,,,0.00,2.000000,,2013-03-18 13:52:00,
2013-03-18 08:02:00,33.0,10.0,-100.00,NNW,348,6.0,11.0,37,0.00,,,0.00,2.000000,,2013-03-18 14:02:00,
2013-03-18 08:12:00,33.0,10.0,-100.00,NNW,348,6.0,11.0,37,0.00,,,0.00,2.000000,,2013-03-18 14:12:00,
2013-03-18 08:22:00,33.0,10.0,-100.00,NNW,348,6.0,11.0,37,0.00,,,0.00,2.000000,,2013-03-18 14:22:00,
2013-03-18 08:30:00,37.0,9.0,-100.00,North,349,9.0,16.0,31,0.00,,,-99.99,97.000000,,2013-03-18 14:30:00,
2013-03-18 08:52:00,37.0,9.0,-100.00,North,349,9.0,16.0,31,0.00,,,-99.99,97.000000,,2013-03-18 14:52:00,
2013-03-18 09:02:00,37.0,9.0,-100.00,North,349,9.0,16.0,31,0.00,,,-99.99,97.000000,,2013-03-18 15:02:00,
2013-03-18 09:30:00,39.0,9.0,-100.00,NNW,343,11.0,24.0,28,0.00,,,0.00,349.000000,,2013-03-18 15:30:00,
2013-03-18 09:52:00,39.0,9.0,-100.00,NNW,343,11.0,24.0,28,0.00,,,0.00,349.000000,,2013-03-18 15:52:00,
2013-03-18 10:02:00,39.0,9.0,-100.00,NNW,343,11.0,24.0,28,0.00,,,0.00,349.000000,,2013-03-18 16:02:00,
2013-03-18 10:12:00,39.0,9.0,-100.00,NNW,343,11.0,24.0,28,0.00,,,0.00,349.000000,,2013-03-18 16:12:00,
2013-03-18 10:22:00,39.0,9.0,-100.00,NNW,343,11.0,24.0,28,0.00,,,0.00,349.000000,,2013-03-18 16:22:00,
2013-03-18 10:30:00,42.0,10.0,-100.00,NNW,341,10.0,23.0,27,0.00,,,0.00,608.000000,,2013-03-18 16:30:00,
2013-03-18 10:52:00,42.0,10.0,-100.00,NNW,341,10.0,23.0,27,0.00,,,0.00,608.000000,,2013-03-18 16:52:00,
2013-03-18 11:02:00,42.0,10.0,-100.00,NNW,341,10.0,23.0,27,0.00,,,0.00,608.000000,,2013-03-18 17:02:00,
2013-03-18 11:12:00,42.0,10.0,-100.00,NNW,341,10.0,23.0,27,0.00,,,0.00,608.000000,,2013-03-18 17:12:00,
2013-03-18 11:22:00,42.0,10.0,-100.00,NNW,341,10.0,23.0,27,0.00,,,0.00,608.000000,,2013-03-18 17:22:00,
2013-03-18 11:30:00,44.0,10.0,-100.00,NW,315,9.0,23.0,24,0.00,,,0.00,825.000000,,2013-03-18 17:30:00,
2013-03-18 11:52:00,44.0,10.0,-100.00,NW,315,9.0,23.0,24,0.00,,,0.00,825.000000,,2013-03-18 17:52:00,
2013-03-18 12:02:00,44.0,10.0,-100.00,NW,315,9.0,23.0,24,0.00,,,0.00,825.000000,,2013-03-18 18:02:00,
2013-03-18 12:12:00,44.0,10.0,-100.00,NW,315,9.0,23.0,24,0.00,,,0.00,825.000000,,2013-03-18 18:12:00,
2013-03-18 12:22:00,44.0,10.0,-100.00,NW,315,9.0,23.0,24,0.00,,,0.00,825.000000,,2013-03-18 18:22:00,
2013-03-18 12:30:00,47.0,11.0,-100.00,NW,312,8.0,24.0,23,0.00,,,0.00,953.000000,,2013-03-18 18:30:00,
2013-03-18 12:52:00,47.0,11.0,-100.00,NW,312,8.0,24.0,23,0.00,,,0.00,953.000000,,2013-03-18 18:52:00,
2013-03-18 13:02:00,47.0,11.0,-100.00,NW,312,8.0,24.0,23,0.00,,,0.00,953.000000,,2013-03-18 19:02:00,
2013-03-18 13:12:00,47.0,11.0,-100.00,NW,312,8.0,24.0,23,0.00,,,0.00,953.000000,,2013-03-18 19:12:00,
2013-03-18 13:22:00,47.0,11.0,-100.00,NW,312,8.0,24.0,23,0.00,,,0.00,953.000000,,2013-03-18 19:22:00,
2013-03-18 13:30:00,48.0,10.0,-100.00,NW,306,8.0,17.0,21,0.00,,,0.00,900.000000,,2013-03-18 19:30:00,
2013-03-18 13:52:00,48.0,10.0,-100.00,NW,306,8.0,17.0,21,0.00,,,0.00,900.000000,,2013-03-18 19:52:00,
2013-03-18 14:02:00,48.0,10.0,-100.00,NW,306,8.0,17.0,21,0.00,,,0.00,900.000000,,2013-03-18 20:02:00,
2013-03-18 14:12:00,48.0,10.0,-100.00,NW,306,8.0,17.0,21,0.00,,,0.00,900.000000,,2013-03-18 20:12:00,
2013-03-18 14:22:00,48.0,10.0,-100.00,NW,306,8.0,17.0,21,0.00,,,0.00,900.000000,,2013-03-18 20:22:00,
2013-03-18 14:30:00,49.0,11.0,-100.00,NW,317,8.0,16.0,21,0.00,,,0.00,968.000000,,2013-03-18 20:30:00,
2013-03-18 14:52:00,49.0,11.0,-100.00,NW,317,8.0,16.0,21,0.00,,,0.00,968.000000,,2013-03-18 20:52:00,
2013-03-18 15:02:00,49.0,11.0,-100.00,NW,317,8.0,16.0,21,0.00,,,0.00,968.000000,,2013-03-18 21:02:00,
2013-03-18 15:11:00,49.0,11.0,-100.00,NW,317,8.0,16.0,21,0.00,,,0.00,968.000000,,2013-03-18 21:11:00,
2013-03-18 15:22:00,49.0,11.0,-100.00,NW,317,8.0,16.0,21,0.00,,,0.00,968.000000,,2013-03-18 21:22:00,
2013-03-18 15:30:00,51.0,10.0,-100.00,West,268,9.0,17.0,19,0.00,,,0.00,900.000000,,2013-03-18 21:30:00,
2013-03-18 15:53:00,51.0,10.0,-100.00,West,268,9.0,17.0,19,0.00,,,0.00,900.000000,,2013-03-18 21:53:00,
2013-03-18 16:03:00,51.0,10.0,-100.00,West,268,9.0,17.0,19,0.00,,,0.00,900.000000,,2013-03-18 22:03:00,
2013-03-18 16:12:00,51.0,10.0,-100.00,West,268,9.0,17.0,19,0.00,,,0.00,900.000000,,2013-03-18 22:12:00,
2013-03-18 16:22:00,51.0,10.0,-100.00,West,268,9.0,17.0,19,0.00,,,0.00,900.000000,,2013-03-18 22:22:00,
2013-03-18 16:30:00,51.0,10.0,-100.00,WSW,239,7.0,18.0,19,0.00,,,0.00,741.000000,,2013-03-18 22:30:00,
2013-03-18 16:52:00,51.0,10.0,-100.00,WSW,239,7.0,18.0,19,0.00,,,0.00,741.000000,,2013-03-18 22:52:00,
2013-03-18 17:02:00,51.0,10.0,-100.00,WSW,239,7.0,18.0,19,0.00,,,0.00,741.000000,,2013-03-18 23:02:00,
2013-03-18 17:12:00,51.0,10.0,-100.00,WSW,239,7.0,18.0,19,0.00,,,0.00,741.000000,,2013-03-18 23:12:00,
2013-03-18 17:22:00,51.0,10.0,-100.00,WSW,239,7.0,18.0,19,0.00,,,0.00,741.000000,,2013-03-18 23:22:00,
2013-03-18 17:30:00,50.0,8.0,-100.00,WSW,253,7.0,17.0,18,0.00,,,0.00,522.000000,,2013-03-18 23:30:00,
2013-03-18 17:53:00,50.0,8.0,-100.00,WSW,253,7.0,17.0,18,0.00,,,0.00,522.000000,,2013-03-18 23:53:00,
2013-03-18 18:02:00,50.0,8.0,-100.00,WSW,253,7.0,17.0,18,0.00,,,0.00,522.000000,,2013-03-19 00:02:00,
2013-03-18 18:12:00,50.0,8.0,-100.00,WSW,253,7.0,17.0,18,0.00,,,0.00,522.000000,,2013-03-19 00:12:00,
2013-03-18 18:22:00,50.0,8.0,-100.00,WSW,253,7.0,17.0,18,0.00,,,0.00,522.000000,,2013-03-19 00:22:00,
2013-03-18 18:30:00,47.0,8.0,-100.00,West,279,8.0,15.0,20,0.00,,,-99.99,250.000000,,2013-03-19 00:30:00,
2013-03-18 18:52:00,47.0,8.0,-100.00,West,279,8.0,15.0,20,0.00,,,-99.99,250.000000,,2013-03-19 00:52:00,
2013-03-18 19:02:00,47.0,8.0,-100.00,West,279,8.0,15.0,20,0.00,,,-99.99,250.000000,,2013-03-19 01:02:00,
2013-03-18 19:12:00,47.0,8.0,-100.00,West,279,8.0,15.0,20,0.00,,,-99.99,250.000000,,2013-03-19 01:12:00,
2013-03-18 19:22:00,47.0,8.0,-100.00,West,279,8.0,15.0,20,0.00,,,-99.99,250.000000,,2013-03-19 01:22:00,
2013-03-18 19:30:00,43.0,7.0,-100.00,West,265,4.0,15.0,22,0.00,,,0.00,50.000000,,2013-03-19 01:30:00,
2013-03-18 19:52:00,43.0,7.0,-100.00,West,265,4.0,15.0,22,0.00,,,0.00,50.000000,,2013-03-19 01:52:00,
2013-03-18 20:02:00,43.0,7.0,-100.00,West,265,4.0,15.0,22,0.00,,,0.00,50.000000,,2013-03-19 02:02:00,
2013-03-18 20:12:00,43.0,7.0,-100.00,West,265,4.0,15.0,22,0.00,,,0.00,50.000000,,2013-03-19 02:12:00,
2013-03-18 20:22:00,43.0,7.0,-100.00,West,265,4.0,15.0,22,0.00,,,0.00,50.000000,,2013-03-19 02:22:00,
2013-03-18 20:30:00,40.0,6.0,-100.00,NW,312,3.0,6.0,24,0.00,,,0.00,0.000000,,2013-03-19 02:30:00,
2013-03-18 20:52:00,40.0,6.0,-100.00,NW,312,3.0,6.0,24,0.00,,,0.00,0.000000,,2013-03-19 02:52:00,
2013-03-18 21:02:00,40.0,6.0,-100.00,NW,312,3.0,6.0,24,0.00,,,0.00,0.000000,,2013-03-19 03:02:00,
2013-03-18 21:12:00,40.0,6.0,-100.00,NW,312,3.0,6.0,24,0.00,,,0.00,0.000000,,2013-03-19 03:12:00,
2013-03-18 21:22:00,40.0,6.0,-100.00,NW,312,3.0,6.0,24,0.00,,,0.00,0.000000,,2013-03-19 03:22:00,
2013-03-18 21:30:00,40.0,7.0,-100.00,NW,317,5.0,8.0,25,0.00,,,0.00,0.000000,,2013-03-19 03:30:00,
2013-03-18 21:53:00,40.0,7.0,-100.00,NW,317,5.0,8.0,25,0.00,,,0.00,0.000000,,2013-03-19 03:53:00,
2013-03-18 22:03:00,40.0,7.0,-100.00,NW,317,5.0,8.0,25,0.00,,,0.00,0.000000,,2013-03-19 04:03:00,
2013-03-18 22:13:00,40.0,7.0,-100.00,NW,317,5.0,8.0,25,0.00,,,0.00,0.000000,,2013-03-19 04:13:00,
2013-03-18 22:22:00,40.0,7.0,-100.00,NW,317,5.0,8.0,25,0.00,,,0.00,0.000000,,2013-03-19 04:22:00,
2013-03-18 22:52:00,39.0,7.0,-100.00,NNW,331,3.0,9.0,26,0.00,,,0.00,0.000000,,2013-03-19 04:52:00,
2013-03-18 23:02:00,39.0,7.0,-100.00,NNW,331,3.0,9.0,26,0.00,,,0.00,0.000000,,2013-03-19 05:02:00,
2013-03-18 23:11:00,39.0,7.0,-100.00,NNW,331,3.0,9.0,26,0.00,,,0.00,0.000000,,2013-03-19 05:11:00,
2013-03-18 23:22:00,39.0,7.0,-100.00,NNW,331,3.0,9.0,26,0.00,,,0.00,0.000000,,2013-03-19 05:22:00,
2013-03-18 23:52:00,40.0,8.0,-100.00,NNW,328,3.0,6.0,26,-99.99,,,0.00,0.000000,,2013-03-19 05:52:00,